owner,sensor,date,latitude,longitude,relative_humidity,qcFlag 
DISL,ioos:station:DISL:CATA:1,2017-07-01T00:00:00Z,30.3085,-88.1395,80.9,1111122 
DISL,ioos:station:DISL:CATA:1,2017-07-01T00:30:00Z,30.3085,-88.1395,81.1,1111122 
DISL,ioos:station:DISL:CATA:1,2017-07-01T01:00:00Z,30.3085,-88.1395,81.9,1111122 
DISL,ioos:station:DISL:CATA:1,2017-07-01T01:30:00Z,30.3085,-88.1395,81.5,1111122 
DISL,ioos:station:DISL:CATA:1,2017-07-01T02:00:00Z,30.3085,-88.1395,83.2,1111122 
DISL,ioos:station:DISL:CATA:1,2017-07-01T02:30:00Z,30.3085,-88.1395,83.1,1111122 
DISL,ioos:station:DISL:CATA:1,2017-07-01T03:00:00Z,30.3085,-88.1395,82.6,1111122 
DISL,ioos:station:DISL:CATA:1,2017-07-01T03:30:00Z,30.3085,-88.1395,81.9,1111122 
DISL,ioos:station:DISL:CATA:1,2017-07-01T04:00:00Z,30.3085,-88.1395,83.3,1111122 
DISL,ioos:station:DISL:CATA:1,2017-07-01T04:30:00Z,30.3085,-88.1395,83.1,1111122 
DISL,ioos:station:DISL:CATA:1,2017-07-01T05:00:00Z,30.3085,-88.1395,82.3,1111122 
DISL,ioos:station:DISL:CATA:1,2017-07-01T05:30:00Z,30.3085,-88.1395,80.2,1111122 
DISL,ioos:station:DISL:CATA:1,2017-07-01T06:30:00Z,30.3085,-88.1395,79.0,1111122 
DISL,ioos:station:DISL:CATA:1,2017-07-01T07:00:00Z,30.3085,-88.1395,79.51,1111122 
DISL,ioos:station:DISL:CATA:1,2017-07-01T07:30:00Z,30.3085,-88.1395,81.3,1111122 
DISL,ioos:station:DISL:CATA:1,2017-07-01T08:00:00Z,30.3085,-88.1395,80.3,1111122 
DISL,ioos:station:DISL:CATA:1,2017-07-01T08:30:00Z,30.3085,-88.1395,79.62,1111122 
DISL,ioos:station:DISL:CATA:1,2017-07-01T09:00:00Z,30.3085,-88.1395,80.9,1111122 
DISL,ioos:station:DISL:CATA:1,2017-07-01T09:30:00Z,30.3085,-88.1395,80.7,1111122 
DISL,ioos:station:DISL:CATA:1,2017-07-01T10:00:00Z,30.3085,-88.1395,80.2,1111122 
DISL,ioos:station:DISL:CATA:1,2017-07-01T10:30:00Z,30.3085,-88.1395,82.7,1111122 
DISL,ioos:station:DISL:CATA:1,2017-07-01T11:00:00Z,30.3085,-88.1395,80.0,1111122 
DISL,ioos:station:DISL:CATA:1,2017-07-01T11:30:00Z,30.3085,-88.1395,84.5,1111122 
DISL,ioos:station:DISL:CATA:1,2017-07-01T12:00:00Z,30.3085,-88.1395,82.6,1111122 
DISL,ioos:station:DISL:CATA:1,2017-07-01T12:30:00Z,30.3085,-88.1395,82.8,1111122 
DISL,ioos:station:DISL:CATA:1,2017-07-01T13:00:00Z,30.3085,-88.1395,81.3,1111122 
DISL,ioos:station:DISL:CATA:1,2017-07-01T13:30:00Z,30.3085,-88.1395,79.89,1111122 
DISL,ioos:station:DISL:CATA:1,2017-07-01T14:00:00Z,30.3085,-88.1395,80.8,1111122 
DISL,ioos:station:DISL:CATA:1,2017-07-01T14:30:00Z,30.3085,-88.1395,85.6,1111122 
DISL,ioos:station:DISL:CATA:1,2017-07-01T15:00:00Z,30.3085,-88.1395,81.8,1111122 
DISL,ioos:station:DISL:CATA:1,2017-07-01T15:30:00Z,30.3085,-88.1395,89.2,1111122 
DISL,ioos:station:DISL:CATA:1,2017-07-01T16:00:00Z,30.3085,-88.1395,88.0,1111122 
DISL,ioos:station:DISL:CATA:1,2017-07-01T16:30:00Z,30.3085,-88.1395,80.7,1111122 
DISL,ioos:station:DISL:CATA:1,2017-07-01T17:00:00Z,30.3085,-88.1395,81.8,1111122 
DISL,ioos:station:DISL:CATA:1,2017-07-01T17:30:00Z,30.3085,-88.1395,81.3,1111122 
DISL,ioos:station:DISL:CATA:1,2017-07-01T18:00:00Z,30.3085,-88.1395,81.3,1111122 
DISL,ioos:station:DISL:CATA:1,2017-07-01T18:30:00Z,30.3085,-88.1395,80.2,1111122 
DISL,ioos:station:DISL:CATA:1,2017-07-01T19:00:00Z,30.3085,-88.1395,79.81,1111122 
DISL,ioos:station:DISL:CATA:1,2017-07-01T19:30:00Z,30.3085,-88.1395,75.38,1111122 
DISL,ioos:station:DISL:CATA:1,2017-07-01T20:00:00Z,30.3085,-88.1395,77.29,1111122 
DISL,ioos:station:DISL:CATA:1,2017-07-01T20:30:00Z,30.3085,-88.1395,78.63,1111122 
DISL,ioos:station:DISL:CATA:1,2017-07-01T21:00:00Z,30.3085,-88.1395,81.1,1111122 
DISL,ioos:station:DISL:CATA:1,2017-07-01T21:30:00Z,30.3085,-88.1395,80.2,1111122 
DISL,ioos:station:DISL:CATA:1,2017-07-01T22:00:00Z,30.3085,-88.1395,77.23,1111122 
DISL,ioos:station:DISL:CATA:1,2017-07-01T22:30:00Z,30.3085,-88.1395,75.38,1111122 
DISL,ioos:station:DISL:CATA:1,2017-07-01T23:00:00Z,30.3085,-88.1395,75.29,1111122 
DISL,ioos:station:DISL:CATA:1,2017-07-01T23:30:00Z,30.3085,-88.1395,73.21,1111122 
DISL,ioos:station:DISL:CATA:1,2017-07-02T00:00:00Z,30.3085,-88.1395,71.05,1111122 
DISL,ioos:station:DISL:CATA:1,2017-07-02T00:30:00Z,30.3085,-88.1395,75.3,1111122 
DISL,ioos:station:DISL:CATA:1,2017-07-02T01:00:00Z,30.3085,-88.1395,73.59,1111122 
DISL,ioos:station:DISL:CATA:1,2017-07-02T01:30:00Z,30.3085,-88.1395,72.7,1111122 
DISL,ioos:station:DISL:CATA:1,2017-07-02T02:00:00Z,30.3085,-88.1395,77.9,1111122 
DISL,ioos:station:DISL:CATA:1,2017-07-02T02:30:00Z,30.3085,-88.1395,76.26,1111122 
DISL,ioos:station:DISL:CATA:1,2017-07-02T03:00:00Z,30.3085,-88.1395,79.55,1111122 
DISL,ioos:station:DISL:CATA:1,2017-07-02T03:30:00Z,30.3085,-88.1395,79.99,1111122 
DISL,ioos:station:DISL:CATA:1,2017-07-02T04:00:00Z,30.3085,-88.1395,75.95,1111122 
DISL,ioos:station:DISL:CATA:1,2017-07-02T04:30:00Z,30.3085,-88.1395,74.37,1111122 
DISL,ioos:station:DISL:CATA:1,2017-07-02T05:00:00Z,30.3085,-88.1395,75.92,1111122 
DISL,ioos:station:DISL:CATA:1,2017-07-02T05:30:00Z,30.3085,-88.1395,78.18,1111122 
DISL,ioos:station:DISL:CATA:1,2017-07-02T06:30:00Z,30.3085,-88.1395,75.54,1111122 
DISL,ioos:station:DISL:CATA:1,2017-07-02T07:00:00Z,30.3085,-88.1395,74.48,1111122 
DISL,ioos:station:DISL:CATA:1,2017-07-02T07:30:00Z,30.3085,-88.1395,78.32,1111122 
DISL,ioos:station:DISL:CATA:1,2017-07-02T08:00:00Z,30.3085,-88.1395,81.6,1111122 
DISL,ioos:station:DISL:CATA:1,2017-07-02T08:30:00Z,30.3085,-88.1395,84.3,1111122 
DISL,ioos:station:DISL:CATA:1,2017-07-02T09:00:00Z,30.3085,-88.1395,82.6,1111122 
DISL,ioos:station:DISL:CATA:1,2017-07-02T09:30:00Z,30.3085,-88.1395,82.6,1111122 
DISL,ioos:station:DISL:CATA:1,2017-07-02T10:00:00Z,30.3085,-88.1395,84.8,1111122 
DISL,ioos:station:DISL:CATA:1,2017-07-02T10:30:00Z,30.3085,-88.1395,83.9,1111122 
DISL,ioos:station:DISL:CATA:1,2017-07-02T11:00:00Z,30.3085,-88.1395,83.3,1111122 
DISL,ioos:station:DISL:CATA:1,2017-07-02T11:30:00Z,30.3085,-88.1395,80.8,1111122 
DISL,ioos:station:DISL:CATA:1,2017-07-02T12:00:00Z,30.3085,-88.1395,81.4,1111122 
DISL,ioos:station:DISL:CATA:1,2017-07-02T12:30:00Z,30.3085,-88.1395,81.4,1111122 
DISL,ioos:station:DISL:CATA:1,2017-07-02T13:00:00Z,30.3085,-88.1395,81.7,1111122 
DISL,ioos:station:DISL:CATA:1,2017-07-02T13:30:00Z,30.3085,-88.1395,80.8,1111122 
DISL,ioos:station:DISL:CATA:1,2017-07-02T14:00:00Z,30.3085,-88.1395,82.4,1111122 
DISL,ioos:station:DISL:CATA:1,2017-07-02T14:30:00Z,30.3085,-88.1395,82.5,1111122 
DISL,ioos:station:DISL:CATA:1,2017-07-02T15:00:00Z,30.3085,-88.1395,82.9,1111122 
DISL,ioos:station:DISL:CATA:1,2017-07-02T15:30:00Z,30.3085,-88.1395,83.5,1111122 
DISL,ioos:station:DISL:CATA:1,2017-07-02T16:00:00Z,30.3085,-88.1395,75.37,1111122 
DISL,ioos:station:DISL:CATA:1,2017-07-02T16:30:00Z,30.3085,-88.1395,75.23,1111122 
DISL,ioos:station:DISL:CATA:1,2017-07-02T17:00:00Z,30.3085,-88.1395,70.23,1111122 
DISL,ioos:station:DISL:CATA:1,2017-07-02T17:30:00Z,30.3085,-88.1395,72.24,1111122 
DISL,ioos:station:DISL:CATA:1,2017-07-02T18:00:00Z,30.3085,-88.1395,74.36,1111122 
DISL,ioos:station:DISL:CATA:1,2017-07-02T18:30:00Z,30.3085,-88.1395,75.7,1111122 
DISL,ioos:station:DISL:CATA:1,2017-07-02T19:00:00Z,30.3085,-88.1395,78.43,1111122 
DISL,ioos:station:DISL:CATA:1,2017-07-02T19:30:00Z,30.3085,-88.1395,73.43,1111122 
DISL,ioos:station:DISL:CATA:1,2017-07-02T20:00:00Z,30.3085,-88.1395,75.1,1111122 
DISL,ioos:station:DISL:CATA:1,2017-07-02T20:30:00Z,30.3085,-88.1395,75.75,1111122 
DISL,ioos:station:DISL:CATA:1,2017-07-02T21:00:00Z,30.3085,-88.1395,74.35,1111122 
DISL,ioos:station:DISL:CATA:1,2017-07-02T21:30:00Z,30.3085,-88.1395,73.19,1111122 
DISL,ioos:station:DISL:CATA:1,2017-07-02T22:00:00Z,30.3085,-88.1395,75.65,1111122 
DISL,ioos:station:DISL:CATA:1,2017-07-02T22:30:00Z,30.3085,-88.1395,73.7,1111122 
DISL,ioos:station:DISL:CATA:1,2017-07-02T23:00:00Z,30.3085,-88.1395,70.82,1111122 
DISL,ioos:station:DISL:CATA:1,2017-07-02T23:30:00Z,30.3085,-88.1395,72.13,1111122 
DISL,ioos:station:DISL:CATA:1,2017-07-03T00:00:00Z,30.3085,-88.1395,72.79,1111122 
DISL,ioos:station:DISL:CATA:1,2017-07-03T00:30:00Z,30.3085,-88.1395,74.65,1111122 
DISL,ioos:station:DISL:CATA:1,2017-07-03T01:00:00Z,30.3085,-88.1395,75.3,1111122 
DISL,ioos:station:DISL:CATA:1,2017-07-03T01:30:00Z,30.3085,-88.1395,78.79,1111122 
DISL,ioos:station:DISL:CATA:1,2017-07-03T02:00:00Z,30.3085,-88.1395,78.73,1111122 
DISL,ioos:station:DISL:CATA:1,2017-07-03T02:30:00Z,30.3085,-88.1395,78.42,1111122 
DISL,ioos:station:DISL:CATA:1,2017-07-03T03:00:00Z,30.3085,-88.1395,77.94,1111122 
DISL,ioos:station:DISL:CATA:1,2017-07-03T03:30:00Z,30.3085,-88.1395,78.79,1111122 
DISL,ioos:station:DISL:CATA:1,2017-07-03T04:00:00Z,30.3085,-88.1395,79.45,1111122 
DISL,ioos:station:DISL:CATA:1,2017-07-03T04:30:00Z,30.3085,-88.1395,78.52,1111122 
DISL,ioos:station:DISL:CATA:1,2017-07-03T05:00:00Z,30.3085,-88.1395,75.16,1111122 
DISL,ioos:station:DISL:CATA:1,2017-07-03T05:30:00Z,30.3085,-88.1395,68.65,1111122 
DISL,ioos:station:DISL:CATA:1,2017-07-03T06:30:00Z,30.3085,-88.1395,72.76,1111122 
DISL,ioos:station:DISL:CATA:1,2017-07-03T07:00:00Z,30.3085,-88.1395,73.62,1111122 
DISL,ioos:station:DISL:CATA:1,2017-07-03T07:30:00Z,30.3085,-88.1395,75.4,1111122 
DISL,ioos:station:DISL:CATA:1,2017-07-03T08:00:00Z,30.3085,-88.1395,76.26,1111122 
DISL,ioos:station:DISL:CATA:1,2017-07-03T08:30:00Z,30.3085,-88.1395,76.64,1111122 
DISL,ioos:station:DISL:CATA:1,2017-07-03T09:00:00Z,30.3085,-88.1395,78.69,1111122 
DISL,ioos:station:DISL:CATA:1,2017-07-03T09:30:00Z,30.3085,-88.1395,75.92,1111122 
DISL,ioos:station:DISL:CATA:1,2017-07-03T10:00:00Z,30.3085,-88.1395,75.68,1111122 
DISL,ioos:station:DISL:CATA:1,2017-07-03T10:30:00Z,30.3085,-88.1395,76.22,1111122 
DISL,ioos:station:DISL:CATA:1,2017-07-03T11:00:00Z,30.3085,-88.1395,82.2,1111122 
DISL,ioos:station:DISL:CATA:1,2017-07-03T11:30:00Z,30.3085,-88.1395,78.69,1111122 
DISL,ioos:station:DISL:CATA:1,2017-07-03T12:00:00Z,30.3085,-88.1395,84.4,1111122 
DISL,ioos:station:DISL:CATA:1,2017-07-03T12:30:00Z,30.3085,-88.1395,86.9,1111122 
DISL,ioos:station:DISL:CATA:1,2017-07-03T13:00:00Z,30.3085,-88.1395,87.1,1111122 
DISL,ioos:station:DISL:CATA:1,2017-07-03T13:30:00Z,30.3085,-88.1395,81.2,1111122 
DISL,ioos:station:DISL:CATA:1,2017-07-03T14:00:00Z,30.3085,-88.1395,83.0,1111122 
DISL,ioos:station:DISL:CATA:1,2017-07-03T14:30:00Z,30.3085,-88.1395,79.88,1111122 
DISL,ioos:station:DISL:CATA:1,2017-07-03T15:00:00Z,30.3085,-88.1395,77.37,1111122 
DISL,ioos:station:DISL:CATA:1,2017-07-03T15:30:00Z,30.3085,-88.1395,70.28,1111122 
DISL,ioos:station:DISL:CATA:1,2017-07-03T16:00:00Z,30.3085,-88.1395,70.92,1111122 
DISL,ioos:station:DISL:CATA:1,2017-07-03T16:30:00Z,30.3085,-88.1395,72.19,1111122 
DISL,ioos:station:DISL:CATA:1,2017-07-03T17:00:00Z,30.3085,-88.1395,72.47,1111122 
DISL,ioos:station:DISL:CATA:1,2017-07-03T17:30:00Z,30.3085,-88.1395,74.62,1111122 
DISL,ioos:station:DISL:CATA:1,2017-07-03T18:00:00Z,30.3085,-88.1395,75.48,1111122 
DISL,ioos:station:DISL:CATA:1,2017-07-03T18:30:00Z,30.3085,-88.1395,70.03,1111122 
DISL,ioos:station:DISL:CATA:1,2017-07-03T19:00:00Z,30.3085,-88.1395,68.9,1111122 
DISL,ioos:station:DISL:CATA:1,2017-07-03T19:30:00Z,30.3085,-88.1395,67.19,1111122 
DISL,ioos:station:DISL:CATA:1,2017-07-03T20:00:00Z,30.3085,-88.1395,64.08,1111122 
DISL,ioos:station:DISL:CATA:1,2017-07-03T20:30:00Z,30.3085,-88.1395,68.01,1111122 
DISL,ioos:station:DISL:CATA:1,2017-07-03T21:00:00Z,30.3085,-88.1395,56.27,1111122 
DISL,ioos:station:DISL:CATA:1,2017-07-03T21:30:00Z,30.3085,-88.1395,57.6,1111122 
DISL,ioos:station:DISL:CATA:1,2017-07-03T22:00:00Z,30.3085,-88.1395,59.08,1111122 
DISL,ioos:station:DISL:CATA:1,2017-07-03T22:30:00Z,30.3085,-88.1395,64.45,1111122 
DISL,ioos:station:DISL:CATA:1,2017-07-03T23:00:00Z,30.3085,-88.1395,61.54,1111122 
DISL,ioos:station:DISL:CATA:1,2017-07-03T23:30:00Z,30.3085,-88.1395,61.54,1111122 
DISL,ioos:station:DISL:CATA:1,2017-07-04T00:00:00Z,30.3085,-88.1395,66.14,1111122 
DISL,ioos:station:DISL:CATA:1,2017-07-04T00:30:00Z,30.3085,-88.1395,64.85,1111122 
DISL,ioos:station:DISL:CATA:1,2017-07-04T01:00:00Z,30.3085,-88.1395,67.63,1111122 
DISL,ioos:station:DISL:CATA:1,2017-07-04T01:30:00Z,30.3085,-88.1395,65.95,1111122 
DISL,ioos:station:DISL:CATA:1,2017-07-04T02:00:00Z,30.3085,-88.1395,72.15,1111122 
DISL,ioos:station:DISL:CATA:1,2017-07-04T02:30:00Z,30.3085,-88.1395,72.15,1111122 
DISL,ioos:station:DISL:CATA:1,2017-07-04T03:00:00Z,30.3085,-88.1395,73.31,1111122 
DISL,ioos:station:DISL:CATA:1,2017-07-04T03:30:00Z,30.3085,-88.1395,73.28,1111122 
DISL,ioos:station:DISL:CATA:1,2017-07-04T04:00:00Z,30.3085,-88.1395,73.86,1111122 
DISL,ioos:station:DISL:CATA:1,2017-07-04T04:30:00Z,30.3085,-88.1395,74.13,1111122 
DISL,ioos:station:DISL:CATA:1,2017-07-04T05:00:00Z,30.3085,-88.1395,73.69,1111122 
DISL,ioos:station:DISL:CATA:1,2017-07-04T05:30:00Z,30.3085,-88.1395,70.4,1111122 
DISL,ioos:station:DISL:CATA:1,2017-07-04T06:30:00Z,30.3085,-88.1395,70.37,1111122 
DISL,ioos:station:DISL:CATA:1,2017-07-04T07:00:00Z,30.3085,-88.1395,70.37,1111122 
DISL,ioos:station:DISL:CATA:1,2017-07-04T07:30:00Z,30.3085,-88.1395,71.05,1111122 
DISL,ioos:station:DISL:CATA:1,2017-07-04T08:00:00Z,30.3085,-88.1395,73.59,1111122 
DISL,ioos:station:DISL:CATA:1,2017-07-04T08:30:00Z,30.3085,-88.1395,72.15,1111122 
DISL,ioos:station:DISL:CATA:1,2017-07-04T09:00:00Z,30.3085,-88.1395,71.19,1111122 
DISL,ioos:station:DISL:CATA:1,2017-07-04T09:30:00Z,30.3085,-88.1395,74.31,1111122 
DISL,ioos:station:DISL:CATA:1,2017-07-04T10:00:00Z,30.3085,-88.1395,71.53,1111122 
DISL,ioos:station:DISL:CATA:1,2017-07-04T10:30:00Z,30.3085,-88.1395,74.17,1111122 
DISL,ioos:station:DISL:CATA:1,2017-07-04T11:00:00Z,30.3085,-88.1395,75.23,1111122 
DISL,ioos:station:DISL:CATA:1,2017-07-04T11:30:00Z,30.3085,-88.1395,75.4,1111122 
DISL,ioos:station:DISL:CATA:1,2017-07-04T12:00:00Z,30.3085,-88.1395,76.29,1111122 
DISL,ioos:station:DISL:CATA:1,2017-07-04T12:30:00Z,30.3085,-88.1395,72.7,1111122 
DISL,ioos:station:DISL:CATA:1,2017-07-04T13:00:00Z,30.3085,-88.1395,74.31,1111122 
DISL,ioos:station:DISL:CATA:1,2017-07-04T13:30:00Z,30.3085,-88.1395,74.55,1111122 
DISL,ioos:station:DISL:CATA:1,2017-07-04T14:00:00Z,30.3085,-88.1395,74.4,1111122 
DISL,ioos:station:DISL:CATA:1,2017-07-04T14:30:00Z,30.3085,-88.1395,74.52,1111122 
DISL,ioos:station:DISL:CATA:1,2017-07-04T15:00:00Z,30.3085,-88.1395,74.25,1111122 
DISL,ioos:station:DISL:CATA:1,2017-07-04T15:30:00Z,30.3085,-88.1395,74.21,1111122 
DISL,ioos:station:DISL:CATA:1,2017-07-04T16:00:00Z,30.3085,-88.1395,71.92,1111122 
DISL,ioos:station:DISL:CATA:1,2017-07-04T16:30:00Z,30.3085,-88.1395,69.59,1111122 
DISL,ioos:station:DISL:CATA:1,2017-07-04T17:00:00Z,30.3085,-88.1395,72.77,1111122 
DISL,ioos:station:DISL:CATA:1,2017-07-04T17:30:00Z,30.3085,-88.1395,71.78,1111122 
DISL,ioos:station:DISL:CATA:1,2017-07-04T18:00:00Z,30.3085,-88.1395,70.0,1111122 
DISL,ioos:station:DISL:CATA:1,2017-07-04T18:30:00Z,30.3085,-88.1395,69.59,1111122 
DISL,ioos:station:DISL:CATA:1,2017-07-04T19:00:00Z,30.3085,-88.1395,64.93,1111122 
DISL,ioos:station:DISL:CATA:1,2017-07-04T19:30:00Z,30.3085,-88.1395,66.71,1111122 
DISL,ioos:station:DISL:CATA:1,2017-07-04T20:00:00Z,30.3085,-88.1395,65.14,1111122 
DISL,ioos:station:DISL:CATA:1,2017-07-04T20:30:00Z,30.3085,-88.1395,63.73,1111122 
DISL,ioos:station:DISL:CATA:1,2017-07-04T21:00:00Z,30.3085,-88.1395,62.74,1111122 
DISL,ioos:station:DISL:CATA:1,2017-07-04T21:30:00Z,30.3085,-88.1395,68.77,1111122 
DISL,ioos:station:DISL:CATA:1,2017-07-04T22:00:00Z,30.3085,-88.1395,68.77,1111122 
DISL,ioos:station:DISL:CATA:1,2017-07-04T22:30:00Z,30.3085,-88.1395,62.53,1111122 
DISL,ioos:station:DISL:CATA:1,2017-07-04T23:00:00Z,30.3085,-88.1395,62.12,1111122 
DISL,ioos:station:DISL:CATA:1,2017-07-04T23:30:00Z,30.3085,-88.1395,60.03,1111122 
DISL,ioos:station:DISL:CATA:1,2017-07-05T00:00:00Z,30.3085,-88.1395,63.95,1111122 
DISL,ioos:station:DISL:CATA:1,2017-07-05T00:30:00Z,30.3085,-88.1395,65.84,1111122 
DISL,ioos:station:DISL:CATA:1,2017-07-05T01:00:00Z,30.3085,-88.1395,67.15,1111122 
DISL,ioos:station:DISL:CATA:1,2017-07-05T01:30:00Z,30.3085,-88.1395,69.48,1111122 
DISL,ioos:station:DISL:CATA:1,2017-07-05T02:00:00Z,30.3085,-88.1395,68.04,1111122 
DISL,ioos:station:DISL:CATA:1,2017-07-05T02:30:00Z,30.3085,-88.1395,69.48,1111122 
DISL,ioos:station:DISL:CATA:1,2017-07-05T03:00:00Z,30.3085,-88.1395,69.78,1111122 
DISL,ioos:station:DISL:CATA:1,2017-07-05T03:30:00Z,30.3085,-88.1395,70.57,1111122 
DISL,ioos:station:DISL:CATA:1,2017-07-05T04:00:00Z,30.3085,-88.1395,72.76,1111122 
DISL,ioos:station:DISL:CATA:1,2017-07-05T04:30:00Z,30.3085,-88.1395,71.94,1111122 
DISL,ioos:station:DISL:CATA:1,2017-07-05T05:00:00Z,30.3085,-88.1395,73.24,1111122 
DISL,ioos:station:DISL:CATA:1,2017-07-05T05:30:00Z,30.3085,-88.1395,73.31,1111122 
DISL,ioos:station:DISL:CATA:1,2017-07-05T06:30:00Z,30.3085,-88.1395,73.93,1111122 
DISL,ioos:station:DISL:CATA:1,2017-07-05T07:00:00Z,30.3085,-88.1395,73.18,1111122 
DISL,ioos:station:DISL:CATA:1,2017-07-05T07:30:00Z,30.3085,-88.1395,75.78,1111122 
DISL,ioos:station:DISL:CATA:1,2017-07-05T08:00:00Z,30.3085,-88.1395,75.88,1111122 
DISL,ioos:station:DISL:CATA:1,2017-07-05T08:30:00Z,30.3085,-88.1395,76.05,1111122 
DISL,ioos:station:DISL:CATA:1,2017-07-05T09:00:00Z,30.3085,-88.1395,74.1,1111122 
DISL,ioos:station:DISL:CATA:1,2017-07-05T09:30:00Z,30.3085,-88.1395,77.42,1111122 
DISL,ioos:station:DISL:CATA:1,2017-07-05T10:00:00Z,30.3085,-88.1395,76.12,1111122 
DISL,ioos:station:DISL:CATA:1,2017-07-05T10:30:00Z,30.3085,-88.1395,77.97,1111122 
DISL,ioos:station:DISL:CATA:1,2017-07-05T11:00:00Z,30.3085,-88.1395,75.75,1111122 
DISL,ioos:station:DISL:CATA:1,2017-07-05T11:30:00Z,30.3085,-88.1395,75.81,1111122 
DISL,ioos:station:DISL:CATA:1,2017-07-05T12:00:00Z,30.3085,-88.1395,75.3,1111122 
DISL,ioos:station:DISL:CATA:1,2017-07-05T12:30:00Z,30.3085,-88.1395,74.17,1111122 
DISL,ioos:station:DISL:CATA:1,2017-07-05T13:00:00Z,30.3085,-88.1395,74.96,1111122 
DISL,ioos:station:DISL:CATA:1,2017-07-05T13:30:00Z,30.3085,-88.1395,74.26,1111122 
DISL,ioos:station:DISL:CATA:1,2017-07-05T14:00:00Z,30.3085,-88.1395,74.86,1111122 
DISL,ioos:station:DISL:CATA:1,2017-07-05T14:30:00Z,30.3085,-88.1395,73.9,1111122 
DISL,ioos:station:DISL:CATA:1,2017-07-05T15:00:00Z,30.3085,-88.1395,73.49,1111122 
DISL,ioos:station:DISL:CATA:1,2017-07-05T15:30:00Z,30.3085,-88.1395,72.12,1111122 
DISL,ioos:station:DISL:CATA:1,2017-07-05T16:00:00Z,30.3085,-88.1395,69.04,1111122 
DISL,ioos:station:DISL:CATA:1,2017-07-05T16:30:00Z,30.3085,-88.1395,71.27,1111122 
DISL,ioos:station:DISL:CATA:1,2017-07-05T17:00:00Z,30.3085,-88.1395,73.22,1111122 
DISL,ioos:station:DISL:CATA:1,2017-07-05T17:30:00Z,30.3085,-88.1395,71.23,1111122 
DISL,ioos:station:DISL:CATA:1,2017-07-05T18:00:00Z,30.3085,-88.1395,70.21,1111122 
DISL,ioos:station:DISL:CATA:1,2017-07-05T18:30:00Z,30.3085,-88.1395,70.31,1111122 
DISL,ioos:station:DISL:CATA:1,2017-07-05T19:00:00Z,30.3085,-88.1395,71.92,1111122 
DISL,ioos:station:DISL:CATA:1,2017-07-05T19:30:00Z,30.3085,-88.1395,69.11,1111122 
DISL,ioos:station:DISL:CATA:1,2017-07-05T20:00:00Z,30.3085,-88.1395,61.27,1111122 
DISL,ioos:station:DISL:CATA:1,2017-07-05T20:30:00Z,30.3085,-88.1395,66.47,1111122 
DISL,ioos:station:DISL:CATA:1,2017-07-05T21:00:00Z,30.3085,-88.1395,67.5,1111122 
DISL,ioos:station:DISL:CATA:1,2017-07-05T21:30:00Z,30.3085,-88.1395,70.34,1111122 
DISL,ioos:station:DISL:CATA:1,2017-07-05T22:00:00Z,30.3085,-88.1395,70.0,1111122 
DISL,ioos:station:DISL:CATA:1,2017-07-05T22:30:00Z,30.3085,-88.1395,68.8,1111122 
DISL,ioos:station:DISL:CATA:1,2017-07-05T23:00:00Z,30.3085,-88.1395,65.51,1111122 
DISL,ioos:station:DISL:CATA:1,2017-07-05T23:30:00Z,30.3085,-88.1395,66.75,1111122 
DISL,ioos:station:DISL:CATA:1,2017-07-06T00:00:00Z,30.3085,-88.1395,66.35,1111122 
DISL,ioos:station:DISL:CATA:1,2017-07-06T00:30:00Z,30.3085,-88.1395,71.73,1111122 
DISL,ioos:station:DISL:CATA:1,2017-07-06T01:00:00Z,30.3085,-88.1395,72.15,1111122 
DISL,ioos:station:DISL:CATA:1,2017-07-06T01:30:00Z,30.3085,-88.1395,72.87,1111122 
DISL,ioos:station:DISL:CATA:1,2017-07-06T02:00:00Z,30.3085,-88.1395,71.98,1111122 
DISL,ioos:station:DISL:CATA:1,2017-07-06T02:30:00Z,30.3085,-88.1395,73.21,1111122 
DISL,ioos:station:DISL:CATA:1,2017-07-06T03:00:00Z,30.3085,-88.1395,74.89,1111122 
DISL,ioos:station:DISL:CATA:1,2017-07-06T03:30:00Z,30.3085,-88.1395,72.9,1111122 
DISL,ioos:station:DISL:CATA:1,2017-07-06T04:00:00Z,30.3085,-88.1395,73.38,1111122 
DISL,ioos:station:DISL:CATA:1,2017-07-06T04:30:00Z,30.3085,-88.1395,71.22,1111122 
DISL,ioos:station:DISL:CATA:1,2017-07-06T05:00:00Z,30.3085,-88.1395,73.04,1111122 
DISL,ioos:station:DISL:CATA:1,2017-07-06T05:30:00Z,30.3085,-88.1395,73.11,1111122 
DISL,ioos:station:DISL:CATA:1,2017-07-06T06:30:00Z,30.3085,-88.1395,73.35,1111122 
DISL,ioos:station:DISL:CATA:1,2017-07-06T07:00:00Z,30.3085,-88.1395,76.53,1111122 
DISL,ioos:station:DISL:CATA:1,2017-07-06T07:30:00Z,30.3085,-88.1395,73.86,1111122 
DISL,ioos:station:DISL:CATA:1,2017-07-06T08:00:00Z,30.3085,-88.1395,72.76,1111122 
DISL,ioos:station:DISL:CATA:1,2017-07-06T08:30:00Z,30.3085,-88.1395,72.11,1111122 
DISL,ioos:station:DISL:CATA:1,2017-07-06T09:00:00Z,30.3085,-88.1395,75.2,1111122 
DISL,ioos:station:DISL:CATA:1,2017-07-06T09:30:00Z,30.3085,-88.1395,70.78,1111122 
DISL,ioos:station:DISL:CATA:1,2017-07-06T10:00:00Z,30.3085,-88.1395,70.74,1111122 
DISL,ioos:station:DISL:CATA:1,2017-07-06T10:30:00Z,30.3085,-88.1395,74.48,1111122 
DISL,ioos:station:DISL:CATA:1,2017-07-06T11:00:00Z,30.3085,-88.1395,72.8,1111122 
DISL,ioos:station:DISL:CATA:1,2017-07-06T11:30:00Z,30.3085,-88.1395,70.26,1111122 
DISL,ioos:station:DISL:CATA:1,2017-07-06T12:00:00Z,30.3085,-88.1395,65.43,1111122 
DISL,ioos:station:DISL:CATA:1,2017-07-06T12:30:00Z,30.3085,-88.1395,69.1,1111122 
DISL,ioos:station:DISL:CATA:1,2017-07-06T13:00:00Z,30.3085,-88.1395,71.19,1111122 
DISL,ioos:station:DISL:CATA:1,2017-07-06T13:30:00Z,30.3085,-88.1395,67.8,1111122 
DISL,ioos:station:DISL:CATA:1,2017-07-06T14:00:00Z,30.3085,-88.1395,76.65,1111122 
DISL,ioos:station:DISL:CATA:1,2017-07-06T14:30:00Z,30.3085,-88.1395,67.82,1111122 
DISL,ioos:station:DISL:CATA:1,2017-07-06T15:00:00Z,30.3085,-88.1395,68.12,1111122 
DISL,ioos:station:DISL:CATA:1,2017-07-06T15:30:00Z,30.3085,-88.1395,67.26,1111122 
DISL,ioos:station:DISL:CATA:1,2017-07-06T16:00:00Z,30.3085,-88.1395,68.42,1111122 
DISL,ioos:station:DISL:CATA:1,2017-07-06T16:30:00Z,30.3085,-88.1395,68.32,1111122 
DISL,ioos:station:DISL:CATA:1,2017-07-06T17:00:00Z,30.3085,-88.1395,69.38,1111122 
DISL,ioos:station:DISL:CATA:1,2017-07-06T17:30:00Z,30.3085,-88.1395,71.75,1111122 
DISL,ioos:station:DISL:CATA:1,2017-07-06T18:00:00Z,30.3085,-88.1395,69.69,1111122 
DISL,ioos:station:DISL:CATA:1,2017-07-06T18:30:00Z,30.3085,-88.1395,69.42,1111122 
DISL,ioos:station:DISL:CATA:1,2017-07-06T19:00:00Z,30.3085,-88.1395,70.62,1111122 
DISL,ioos:station:DISL:CATA:1,2017-07-06T19:30:00Z,30.3085,-88.1395,68.08,1111122 
DISL,ioos:station:DISL:CATA:1,2017-07-06T20:00:00Z,30.3085,-88.1395,67.53,1111122 
DISL,ioos:station:DISL:CATA:1,2017-07-06T20:30:00Z,30.3085,-88.1395,67.29,1111122 
DISL,ioos:station:DISL:CATA:1,2017-07-06T21:00:00Z,30.3085,-88.1395,65.0,1111122 
DISL,ioos:station:DISL:CATA:1,2017-07-06T21:30:00Z,30.3085,-88.1395,68.32,1111122 
DISL,ioos:station:DISL:CATA:1,2017-07-06T22:00:00Z,30.3085,-88.1395,65.27,1111122 
DISL,ioos:station:DISL:CATA:1,2017-07-06T22:30:00Z,30.3085,-88.1395,67.6,1111122 
DISL,ioos:station:DISL:CATA:1,2017-07-06T23:00:00Z,30.3085,-88.1395,67.4,1111122 
DISL,ioos:station:DISL:CATA:1,2017-07-06T23:30:00Z,30.3085,-88.1395,64.42,1111122 
DISL,ioos:station:DISL:CATA:1,2017-07-07T00:00:00Z,30.3085,-88.1395,64.83,1111122 
DISL,ioos:station:DISL:CATA:1,2017-07-07T00:30:00Z,30.3085,-88.1395,68.23,1111122 
DISL,ioos:station:DISL:CATA:1,2017-07-07T01:00:00Z,30.3085,-88.1395,72.08,1111122 
DISL,ioos:station:DISL:CATA:1,2017-07-07T01:30:00Z,30.3085,-88.1395,72.56,1111122 
DISL,ioos:station:DISL:CATA:1,2017-07-07T02:00:00Z,30.3085,-88.1395,68.55,1111122 
DISL,ioos:station:DISL:CATA:1,2017-07-07T02:30:00Z,30.3085,-88.1395,69.34,1111122 
DISL,ioos:station:DISL:CATA:1,2017-07-07T03:00:00Z,30.3085,-88.1395,69.17,1111122 